Regional Weather Roundup
Issued by NWS

Home | Current Version | Previous Version | Graphics & Text | Print | Product List | Glossary On
Versions: 1 2 3 4 5 6 7 8 9 10 11 12 13 14 15 16 17 18 19 20 21 22 23 24 25 26 27 28 29 30 31 32 33 34 35 36 37 38 39 40 41 42 43 44 45 46 47 48 49 50
000
ASUS43 KMPX 181501
RWRMN
WEATHER ROUNDUP FOR MINNESOTA
NATIONAL WEATHER SERVICE TWIN CITIES/CHANHASSEN MN
900 AM CST THU DEC 18 2014


NOTE: "FAIR" INDICATES FEW OR NO CLOUDS BELOW 12,000 FEET WITH NO
SIGNIFICANT WEATHER AND/OR OBSTRUCTIONS TO VISIBILITY. N/A MEANS
CURRENT SKY AND/OR WEATHER CONDITIONS ARE NOT AVAILABLE.

MNZ060>063-068>070-181600-
   Twin Cities Metro

CITY           SKY/WX    TMP DP  RH WIND       PRES   REMARKS
TWIN CITIES    FLURRIES  16  13  88 SW3       30.31R
ST PAUL        CLOUDY    20  16  84 SE3       30.33R
CRYSTAL        CLOUDY    18  14  84 CALM      30.30R
BLAINE         CLOUDY    21  19  93 CALM      30.30R
LAKEVILLE      LGT SNOW  12  10  92 CALM      30.30S
EDEN PRAIRIE   CLOUDY    13  10  88 CALM      30.30S
SOUTH ST PAUL  CLOUDY    20  16  86 CALM      30.31S
LAKE ELMO      CLOUDY    21  19  93 CALM      30.31R
$$
MNZ001>005-007-008-013>017-022>024-027-028-181600-
   Northwest Minnesota

CITY           SKY/WX    TMP DP  RH WIND       PRES   REMARKS
BEMIDJI        PTCLDY     8   5  89 E3        30.25S
HALLOCK        PTCLDY     5   1  85 SE5       30.25S WCI  -4
ROSEAU         CLEAR      9   3  78 CALM      30.26R
WARROAD        MOCLDY     5   1  85 CALM      30.26S
THIEF RVR FALL PTCLDY     7   3  85 SE5       30.24S WCI  -2
CROOKSTON      PTCLDY     9   7  92 SE6       30.26S WCI  -1
FOSSTON        PTCLDY    10   7  85 CALM      30.24S
DETROIT LAKES  PTCLDY    10   9  92 S6        30.24S WCI   1
MOORHEAD       MOCLDY    12  12 100 S7        30.25S WCI   2
PARK RAPIDS    PTCLDY     7   4  87 SE3       30.23S
MAHNOMEN       FAIR       8   5  86 SE3       30.24R
$$
MNZ006-009>011-018-025>026-181600-
   North Central Minnesota

CITY           SKY/WX    TMP DP  RH WIND       PRES   REMARKS
BAUDETTE       MOCLDY     4   0  83 SE5       30.27S WCI  -5
FLAG ISLAND    MOCLDY     9   3  78 SE8       30.26S WCI  -4
INTL FALLS     PTCLDY     2  -1  88 E3        30.30R
WASKISH        CLEAR      7   5  92 CALM      30.27S
BIG FORK       PTCLDY     1  -2  85 CALM      30.28S
LONGVILLE      LGT SNOW   7   3  85 CALM      30.28R
GRAND RAPIDS   CLOUDY    10   7  85 CALM      30.27R
CRANE LAKE     FLURRIES   9   7  92 CALM      30.33S
ORR            LGT SNOW  14  10  85 CALM      30.27R
COOK           LGT SNOW  12  10  92 CALM      30.29S
WALKER         FAIR       4   2  88 CALM      30.26S
$$
MNZ012-019>021-037-181600-
   Northeast Minnesota

CITY           SKY/WX    TMP DP  RH WIND       PRES   REMARKS
DULUTH         FLURRIES  20  15  81 NW3       30.26S
ELY            CLOUDY    10   9  92 CALM      30.29S
HIBBING        CLOUDY    17  12  80 CALM      30.28S
EVELETH        FLURRIES  18  16  93 CALM      30.28F
DULUTH HARBOR  CLOUDY    23  19  86 CALM      30.32S
TWO HARBORS    CLOUDY    27  21  80 NE3       30.27R
SILVER BAY     CLOUDY    25  19  80 N5        30.28S WCI  19
GRAND MARAIS     N/A     17   6  62 N6        30.35F WCI   9
G MARAIS ARPRT MOCLDY    -6 -11  77 N6        30.26F WCI -18
$$
MNZ029>031-032-039>041-046>048-054>057-064-181600-
   West Central Minnesota

CITY           SKY/WX    TMP DP  RH WIND       PRES   REMARKS
FERGUS FALLS   PTCLDY     9   5  85 SE8       30.29R WCI  -4
WHEATON        CLOUDY     9   7  92 SE5       30.27S WCI   0
MORRIS         PTCLDY    10   7  85 SE6       30.26R FOG     WCI   1
ALEXANDRIA     PTCLDY     9   6  88 SE7       30.25R WCI  -2
ELBOW LAKE     FAIR       8   6  89 SE7       30.25S WCI  -3
WADENA         CLEAR      5   3  92 NW3       30.24S
GLENWOOD       CLEAR      9   7  92 SE3       30.26S
APPLETON       CLOUDY    10   9  92 CALM      30.28R
BENSON         PTCLDY    10   7  85 S3        30.28R
ORTONVILLE     CLOUDY    10   9  92 SE5       30.25S WCI   2
MADISON        CLOUDY    16  14  93 CALM      30.27S
WILLMAR        FAIR      12   9  85 SE3       30.29R
$$
MNZ033>034-036-042>043-049>051-058-059-181600-
   Central Minnesota

CITY           SKY/WX    TMP DP  RH WIND       PRES   REMARKS
ST CLOUD       CLOUDY    15   9  76 CALM      30.29R
SAUK CENTRE    FAIR       5   3  89 CALM      30.28R
PAYNESVILLE    PTCLDY     7   6  95 CALM      30.29R
AITKIN         LGT SNOW  16  10  79 CALM      30.27R
PINE RIVER     LGT SNOW   7   3  85 CALM      30.30R
BRAINERD       CLOUDY    11   8  88 CALM      30.28R FOG
STAPLES        CLEAR      5   3  92 CALM      30.26S
LONG PRAIRIE   FAIR       9   5  85 CALM      30.27S
LITTLE FALLS   LGT SNOW  10   7  85 CALM      30.29S
LITCHFIELD     PTCLDY    10  10 100 CALM      30.29S
BUFFALO        LGT SNOW  13  10  89 CALM      30.32R
MAPLE LAKE     LGT SNOW  13  12  94 CALM      30.31R
$$
MNZ037-044-045-052-053-181600-
   East Central Minnesota

CITY           SKY/WX    TMP DP  RH WIND       PRES   REMARKS
PRINCETON      LGT SNOW  19  16  86 CALM      30.29S
MORA           CLOUDY    18  14  86 CALM      30.30S
CAMBRIDGE      LGT SNOW  21  14  73 CALM      30.28S
RUSH CITY      CLOUDY    19  17  90 CALM      30.30R
MOOSE LAKE     CLOUDY    19  18  93 CALM      30.27S
HINCKLEY       CLOUDY    19  18  93 CALM      30.29S
CLOQUET        CLOUDY    18  16  93 CALM      30.27F
MCGREGOR       CLOUDY    19  18  93 CALM      30.28S
$$
MNZ071>073-080-081-089-090-097-098-181600-
   Southwest Minnesota

CITY           SKY/WX    TMP DP  RH WIND       PRES   REMARKS
MONTEVIDEO     MOCLDY     9   7  92 CALM      30.29S
GRANITE FALLS  MOCLDY     7   5  89 CALM      30.30F FOG
CANBY          CLOUDY    15  13  92 SE5       30.26S WCI   7
MARSHALL       CLOUDY    12   7  79 CALM      30.26S
REDWOOD FALLS  MOCLDY     9   6  88 S3        30.30R
OLIVIA         PTCLDY    12   9  85 SE3       30.29R FOG
PIPESTONE      CLOUDY    18  16  93 SE3       30.20S
WINDOM         CLOUDY    16  12  86 CALM      30.25S
WORTHINGTON    CLOUDY    18  16  93 S7        30.24S WCI   8
JACKSON        CLOUDY    18  16  93 S5        30.25S WCI  11
TRACY          CLOUDY    17  15  93 CALM      30.26R
SLAYTON        CLOUDY    16  15  97 CALM      30.23S
$$
MNZ065>067-074>077-082>085-091>093-181600-
   South Central Minnesota

CITY           SKY/WX    TMP DP  RH WIND       PRES   REMARKS
MANKATO        MOCLDY    14   9  79 SE6       30.29S WCI   5
NEW ULM        MOCLDY    16  12  86 SE3       30.29S
ST JAMES       CLOUDY    18  14  86 CALM      30.30S
FAIRMONT       CLOUDY    18  12  79 SE6       30.27S WCI   9
GLENCOE        PTCLDY    11  10  92 CALM      30.29S
FARIBAULT      LGT SNOW  14  10  85 CALM      30.30R
OWATONNA       MOCLDY    14  10  85 CALM      30.29R
WASECA         MOCLDY    14  12  92 SE5       30.30S WCI   6
ALBERT LEA     PTSUNNY   16  14  93 CALM      30.28R
$$
MNZ078>079-086>088-094>096-181600-
   Southeast Minnesota

CITY           SKY/WX    TMP DP  RH WIND       PRES   REMARKS
ROCHESTER      CLOUDY    16  12  84 CALM      30.28R
RED WING       CLOUDY    18  14  86 CALM      30.31R
STANTON        LGT SNOW  15  11  85 SW3       30.30S
DODGE CENTER   FLURRIES  16  12  86 CALM      30.27S
WINONA         CLOUDY    21  18  86 CALM      30.33R
AUSTIN         CLOUDY    18  12  79 CALM      30.28R
PRESTON        CLOUDY    15  12  88 CALM      30.28R
$$
ABBREVIATIONS USED IN REMARKS
   TC - TEMPERATURES IN CELSIUS
  WCI - WIND CHILL INDEX
   HX - HEAT INDEX
  VSB - VISIBILITY
$$


USA.gov is the U.S. government's official web portal to all federal, state and local government web resources and services.